Location: Drainage Ditch Number 103
(42.9614°N, 94.0455°W)
Time: 14:15:12
(UTC+00:00)

Daily predictions for brighter satellites

Satellite Brightness Start Highest point End
(mag) Time Altitude Azimuth Time Altitude Azimuth Time Altitude Azimuth
Cosmos 371 Rocket 3.3 12:04:12 10° SW 12:08:57 56° WNW 12:13:46 10° NNE
Cosmos 2221 Rocket 3.9 12:06:30 21° NNW 12:09:04 43° W 12:13:14 10° SSW
ADEOS Rocket 4.1 12:04:05 10° SE 12:10:34 49° ENE 12:16:27 10° N
ALOS 2.3 12:06:43 10° N 12:11:17 53° WNW 12:15:49 10° SSW
Cosmos 1655 Rocket 3.9 12:06:33 10° NNW 12:12:45 71° W 12:18:55 10° S
Meteor 2-13 Rocket 4.4 12:07:43 10° NNW 12:13:50 66° W 12:19:55 10° S
GEOS 3 Rocket 3.7 12:09:18 10° SSE 12:14:17 57° WSW 12:17:57 19° NW
Meteor 1-5 Rocket 4.2 12:09:16 10° SSW 12:15:12 80° W 12:21:02 10° N
Okean O Rocket 1.6 12:15:39 10° N 12:20:00 60° WNW 12:24:21 10° SSW
Cosmos 1666 3.5 12:17:52 10° S 12:21:35 52° E 12:25:17 10° NNE
Meteor 2-4 Rocket 3.7 12:16:25 10° NNW 12:21:43 53° W 12:26:54 10° S
Cosmos 2278 Rocket 4.3 12:20:47 10° SSE 12:25:39 30° ESE 12:30:32 10° NE
Cosmos 2263 Rocket 3.6 12:26:39 17° NW 12:27:15 17° NW 12:30:47 10° N
Cosmos 1674 Rocket 3.5 12:30:22 10° NNW 12:34:38 59° W 12:38:52 10° S
USA 234 3.7 12:30:24 10° NE 12:36:28 42° NNW 12:42:31 10° W
Cosmos 405 3.4 12:34:49 10° NNW 12:38:09 39° W 12:41:27 10° SSW
IRIDIUM 106 4.3 12:33:55 10° N 12:39:11 88° W 12:44:23 10° S
ATLAS 3B R/B 3.6 12:34:26 10° SSW 12:40:55 52° ESE 12:47:19 10° NE
Cosmos 1302 Rocket 4.0 12:36:31 10° SSW 12:41:46 64° WNW 12:47:03 10° NNE
FENGYUN 3A 4.2 12:37:25 10° N 12:42:13 34° WNW 12:47:00 10° SW
NOSS 3-2 (C) 3.5 12:36:34 10° SSW 12:42:18 83° ESE 12:48:47 10° NE
ATLAS CENTAUR R/B 1.4 12:40:40 10° NNW 12:44:51 75° NE 12:48:41 10° SE
Okean-O 3.9 12:40:53 10° NNE 12:45:10 46° E 12:49:25 10° S
Cosmos 1833 Rocket 4.1 12:41:18 10° N 12:46:28 35° NE 12:51:36 10° ESE
CZ-4 R/B 4.0 12:45:34 10° NE 12:48:48 24° E 12:52:03 10° SSE
Cosmos 968 Rocket 4.1 12:44:18 10° NNW 12:49:23 58° ENE 12:54:24 10° SSE
Cosmos 2266 Rocket 4.1 12:43:24 10° NNW 12:49:25 54° W 12:55:17 10° SSW
Cosmos 1378 Rocket 3.7 12:47:02 10° NNW 12:51:23 54° W 12:55:42 10° S
Cosmos 44 Rocket 3.3 12:48:49 10° SW 12:53:40 64° NW 12:58:26 10° NNE
GPS 2-04 Rocket1 4.5 12:51:29 10° SW 12:54:54 28° S 12:58:26 10° ESE
H-2A R/B 2.7 12:52:26 10° N 12:56:09 59° WNW 12:59:54 10° SSW
Cosmos 1844 Rocket 3.2 12:52:39 10° SW 12:57:47 37° WNW 13:02:56 10° N
Sich 1 Rocket 4.3 12:53:37 10° S 12:58:02 59° E 13:02:26 10° NNE
Cosmos 1743 3.3 12:54:57 10° S 12:58:41 61° E 13:02:28 10° NNE
Cosmos 1536 3.5 12:55:40 10° SW 12:59:23 34° WNW 13:03:07 10° N
Meteor 2-19 Rocket 4.5 12:57:11 10° NNW 13:03:21 73° W 13:09:27 10° S
Cosmos 304 Rocket 4.3 12:59:57 10° SW 13:04:23 37° WNW 13:08:51 10° N
Orbus 7S? 4.2 13:03:49 10° WNW 13:05:32 16° NNW 13:07:24 10° NNE
Cosmos 1844 4.1 13:00:06 10° SW 13:05:33 41° WNW 13:11:00 10° NNE
CZ-2C R/B 3.8 13:02:04 10° SSE 13:06:49 84° WSW 13:11:38 10° NNW
COSMOS 2406 3.3 13:01:47 10° NNW 13:07:31 87° WSW 13:13:11 10° SSE
CZ-4B R/B 4.0 13:02:46 10° N 13:07:36 31° WNW 13:12:29 10° SW
IRS-1C Rocket 4.2 13:05:32 10° N 13:10:42 59° WNW 13:15:51 10° SSW
BREEZE-M DEB (TANK) 4.1 22:50:42 10° SW 22:54:56 81° SE 23:12:33 10° ENE
Cosmos 2369 Rocket 3.7 23:08:25 10° N 23:11:48 16° NE 23:15:10 10° E
Cosmos 1174 4.3 23:10:08 10° SSW 23:15:13 61° ESE 23:19:16 10° NE
ALOS 3.4 23:10:53 10° S 23:15:23 49° W 23:19:56 10° NNW
Okean O Rocket 2.2 23:12:45 10° S 23:17:02 62° WSW 23:21:22 10° NNW
SL-16 R/B 2.5 23:12:53 10° S 23:18:21 50° ESE 23:23:50 10° NE
Feng Yun 1-1 Rocket 4.2 23:18:08 10° SSE 23:23:24 58° ENE 23:28:43 10° N
USA 215 3.3 23:17:34 10° NE 23:24:09 85° NW 23:30:42 10° SW
Okean 1-7 3.5 23:20:37 10° SSE 23:24:38 39° E 23:28:44 10° NNE
Cosmos 2242 Rocket 3.7 23:20:51 10° S 23:25:25 85° E 23:30:02 10° N
Cosmos 2237 Rocket 2.9 23:20:08 10° SW 23:25:42 56° WNW 23:31:19 10° NNE
Exosat Rocket 4.4 23:21:21 10° SW 23:26:23 50° WNW 23:31:20 10° NNE
Cosmos 1140 Rocket 4.2 23:23:51 10° SSE 23:28:26 34° E 23:33:03 10° NE
Cosmos 1908 Rocket 3.5 23:24:47 10° N 23:29:09 68° E 23:33:28 10° SSE
FALCON 9 DEB 4.4 23:26:57 10° W 23:30:08 32° NNW 23:33:17 10° NE
Cosmos 292 Rocket 3.9 23:26:21 10° NNW 23:31:14 86° WSW 23:36:05 10° SSE
Cosmos 2219 Rocket 4.2 23:28:04 10° W 23:32:20 22° NW 23:36:39 10° N
Cosmos 1943 Rocket 3.1 23:29:01 10° N 23:33:39 25° NE 23:38:13 10° ESE
Envisat 3.4 23:30:20 10° SE 23:35:00 39° ENE 23:39:43 10° N
Cosmos 2333 Rocket 4.3 23:31:21 10° W 23:35:39 21° NW 23:39:57 10° N
CZ-4 R/B 2.7 23:34:21 10° ESE 23:36:55 17° ENE 23:39:29 10° NNE
Cosmos 1441 Rocket 3.2 23:33:42 10° N 23:37:26 57° ENE 23:41:07 10° SSE
H-2A R/B 2.6 23:34:06 10° SSE 23:37:44 68° ENE 23:41:25 10° N
COSMO-SKYMED 1 3.7 23:34:34 10° NE 23:38:07 24° E 23:41:38 10° SSE
ISS 0.3 23:38:39 10° SW 23:38:49 10° SW 23:39:00 10° SW
YAOGAN 1 4.0 23:37:26 10° ESE 23:40:16 17° ENE 23:43:08 10° NNE
Cosmos 2195 Rocket 4.5 23:35:46 10° S 23:41:56 69° E 23:48:12 10° NNE
Cosmos 1627 Rocket 4.5 23:35:58 10° S 23:41:59 62° E 23:48:03 10° NNE
Okean-O 2.9 23:38:52 10° SE 23:43:05 46° ENE 23:47:20 10° N
Cosmos 407 Rocket 3.5 23:38:15 10° S 23:43:24 69° ESE 23:48:38 10° NNE
Genesis I 3.7 23:41:06 10° NW 23:44:57 62° WSW 23:48:42 10° SSE
Aureole 1 Rocket 3.4 23:44:21 10° SW 23:47:13 42° WNW 23:50:28 10° N
Cosmos 1666 3.1 23:46:42 10° NNW 23:50:25 65° W 23:54:05 10° S
Cosmos 921 Rocket 2.9 23:47:25 10° NNW 23:51:45 83° ENE 23:56:08 10° SSE
Cosmos 1975 3.5 23:48:24 10° NNE 23:52:01 32° ENE 23:55:38 10° SE
BREEZE-M DEB (TANK) 2.3 23:48:54 10° WNW 23:53:41 58° N 23:55:24 22° ENE
Okean 3 4.4 23:50:59 10° SE 23:54:25 25° E 23:56:11 19° NE
STARLINK-67 4.5 23:53:05 10° NNW 23:54:58 16° NNE 23:55:02 16° NNE
